This is the latest recevied weather packets stored in our database for station/object VK5TRM-14. If no packets are shown the sender has not sent any weather packets the latest 10 day(s).
| Time | Temp. | Humidity | Pressure | Rain* | Wind** | Luminosity | Snow |
|---|---|---|---|---|---|---|---|
| 1777706105 | 21.67° C | 66% | 1009.4 hPa | 0 mm | - | - | - |
| 1777705205 | 21.11° C | 73% | 1009.6 hPa | 0 mm | - | - | - |
| 1777704305 | 21.11° C | 73% | 1009.6 hPa | 0 mm | - | - | - |
| 1777703405 | 21.11° C | 73% | 1009.8 hPa | 0 mm | - | - | - |
| 1777702505 | 21.11° C | 73% | 1009.8 hPa | 0 mm | - | - | - |
| 1777701605 | 21.11° C | 71% | 1009.9 hPa | 0 mm | - | - | - |
| 1777700707 | 21.11° C | 71% | 1009.9 hPa | 0 mm | - | - | - |
| 1777699805 | 21.67° C | 68% | 1010.1 hPa | 0 mm | - | - | - |
| 1777698906 | 21.67° C | 68% | 1010.1 hPa | 0 mm | - | - | - |
| 1777698005 | 22.22° C | 59% | 1010.3 hPa | 0 mm | - | - | - |
| 1777697105 | 22.22° C | 59% | 1010.3 hPa | 0 mm | - | - | - |
| 1777696205 | 25° C | 41% | 1010.2 hPa | 0 mm | - | - | - |
| 1777695305 | 25° C | 41% | 1010.2 hPa | 0 mm | - | - | - |
| 1777694406 | 26.11° C | 36% | 1010.3 hPa | 0 mm | - | - | - |
| 1777693506 | 26.11° C | 36% | 1010.3 hPa | 0 mm | - | - | - |
| 1777692606 | 26.11° C | 35% | 1010.6 hPa | 0 mm | - | - | - |
| 1777691705 | 26.11° C | 35% | 1010.6 hPa | 0 mm | - | - | - |
| 1777690805 | 27.22° C | 33% | 1010.8 hPa | 0 mm | - | - | - |
| 1777689905 | 27.22° C | 33% | 1010.8 hPa | 0 mm | - | - | - |
| 1777689005 | 27.78° C | 32% | 1011.3 hPa | 0 mm | - | - | - |
| 1777688105 | 27.78° C | 32% | 1011.3 hPa | 0 mm | - | - | - |
| 1777687205 | 27.22° C | 33% | 1011.6 hPa | 0 mm | - | - | - |
| 1777686305 | 27.22° C | 33% | 1011.6 hPa | 0 mm | - | - | - |
| 1777685405 | 26.67° C | 34% | 1011.9 hPa | 0 mm | - | - | - |
| 1777684505 | 26.67° C | 34% | 1011.9 hPa | 0 mm | - | - | - |
* Rain since midnight (hover to see other rain measurements)
** Current wind speed in m/s (hover to see current wind gust speed)